User: anonymous
Location: Luz Observatory
(34.5000°N, 117.2833°W)
Time: 13:00:23
(UTC-07:00)
Language:

Okean 3 Rocket - Orbit

View from above orbital plane
View from above orbital plane
View from above satellite
View from above satellite

Ground track
Ground track

The orbit data is extracted from the following two-line orbital elements,

1 21398U 91039B   14261.64695763  .00000361  00000-0  45398-4 0  8436
2 21398 082.5205 079.2122 0020924 224.5665 182.4572 14.79207449255678
Epoch (UTC): 18 September 2014 15:31:37
Eccentricity: 0.0020924
inclination: 82.5205°
perigee height: 617 km
apogee height: 646 km
right ascension of ascending node: 79.2122°
argument of perigee: 224.5665°
revolutions per day: 14.79207449
mean anomaly at epoch: 182.4572°
orbit number at epoch: 25567

The dashed part of the orbit path shows where the satellite is in the earth's shadow,  

DLR